Tracking 19905 objects as of 17-Oct-2019
HD Live streaming from Space Station
objects crossing your sky now

DELTA 1 DEB

Track DELTA 1 DEB now!
10-day predictions


NORAD ID: 12166
Int'l Code: 1978-026F
Perigee: 817.0 km
Apogee: 870.8 km
Inclination: 98.9 °
Period: 101.6 minutes
Semi major axis: 7214 km
RCS: 0.6029 m2 (medium)
Launch date: March 5, 1978
Source: United States (US)
Launch site: AIR FORCE WESTERN TEST RANGE (AFWTR)

Note: This is SATELLITE DEBRIS
aabbcc
Your satellite tracking list
Your tracking list is empty




NASA's NSSDC Master Catalog

Two Line Element Set (TLE):
1 12166U 78026F   19290.05433729  .00000069  00000-0  56856-4 0  9992
2 12166  98.9071 271.1205 0037319 308.9824  92.0997 14.16631240995059
Source of the keplerian elements: AFSPC